This is the latest recevied weather packets stored in our database for station/object E25HML-13. If no packets are shown the sender has not sent any weather packets the latest 10 day(s).
| Time | Temp. | Humidity | Pressure | Rain* | Wind** | Luminosity | Snow |
|---|---|---|---|---|---|---|---|
| 1777703905 | 30° C | 61% | 1004.7 hPa | - | - | - | - |
| 1777703604 | 30° C | 61% | 1004.7 hPa | - | - | - | - |
| 1777703305 | 30.56° C | 61% | 1005 hPa | - | - | - | - |
| 1777703004 | 30.56° C | 62% | 1005.2 hPa | - | - | - | - |
| 1777702705 | 31.11° C | 62% | 1005.3 hPa | - | - | - | - |
| 1777702405 | 32.22° C | 60% | 1005.2 hPa | - | - | - | - |
| 1777702105 | 33.89° C | 60% | 1005.5 hPa | - | - | - | - |
| 1777701805 | 33.89° C | 60% | 1005.5 hPa | - | - | - | - |
| 1777701505 | 33.89° C | 60% | 1005.6 hPa | - | - | - | - |
| 1777701205 | 33.89° C | 61% | 1005.6 hPa | - | - | - | - |
| 1777700905 | 33.89° C | 61% | 1005.8 hPa | - | - | - | - |
| 1777700605 | 33.33° C | 61% | 1006 hPa | - | - | - | - |
| 1777700305 | 33.33° C | 63% | 1006 hPa | - | - | - | - |
| 1777700005 | 33.33° C | 64% | 1006.1 hPa | - | - | - | - |
| 1777699705 | 33.33° C | 64% | 1006.2 hPa | - | - | - | - |
| 1777699404 | 33.89° C | 62% | 1006.3 hPa | - | - | - | - |
| 1777699104 | 33.33° C | 64% | 1006.4 hPa | - | - | - | - |
| 1777698805 | 33.33° C | 64% | 1006.6 hPa | - | - | - | - |
| 1777698505 | 33.33° C | 65% | 1006.6 hPa | - | - | - | - |
| 1777698204 | 33.33° C | 65% | 1006.7 hPa | - | - | - | - |
| 1777697904 | 33.33° C | 65% | 1006.7 hPa | - | - | - | - |
| 1777697604 | 33.33° C | 66% | 1006.9 hPa | - | - | - | - |
| 1777697304 | 33.33° C | 66% | 1006.9 hPa | - | - | - | - |
| 1777697005 | 33.33° C | 66% | 1007.1 hPa | - | - | - | - |
| 1777696704 | 33.33° C | 66% | 1007.1 hPa | - | - | - | - |
* Rain since midnight (hover to see other rain measurements)
** Current wind speed in m/s (hover to see current wind gust speed)